Location: Bédeille
(43.0872°N, 1.1041°E)
Time: 20:40:40
(UTC+00:00)

Cosmos 540 Rocket - Pass Details

Date: 03 February 2023
Orbit: 740 x 751 km, 74.1° (Epoch: 23 March)

Event Time Altitude Azimuth Distance (km) Brightness Sun altitude
Rises 18:32:18 0° 340° (NNW) 3,205 6.9 -15.3°
Reaches altitude 10° 18:34:41 10° 342° (NNW) 2,275 6.1 -15.7°
Maximum altitude 18:39:51 78° 70° (ENE) 768 3.3 -16.6°
Drops below altitude 10° 18:44:57 10° 156° (SSE) 2,251 5.7 -17.5°
Sets 18:47:17 0° 158° (SSE) 3,168 6.5 -18.0°
